EW9366 Weather Reports


Display with metric or nautical units.
time (UTC)temp
F
wind
direction
speed
MPH
gust
MPH
rain 1hr
in
rain 24hr
in
rain mn
in
humidity
%
barometer
mb
20260906182739 101 197 1.0 5.0 0.00 0.00 0.00 41 1013.7
20260906182238 102 223 2.0 6.0 0.00 0.00 0.00 40 1013.7
20260906181711 103 249 2.0 5.0 0.00 0.00 0.00 40 1013.8
20260906181142 104 231 1.0 5.0 0.00 0.00 0.00 37 1013.9
20260906181058 103 117 2.0 9.0 0.00 0.00 0.00 41 1013.8
20260906180111 103 258 2.0 9.0 0.00 0.00 0.00 38 1013.9
20260906175608 103 259 1.0 6.0 0.00 0.00 0.00 40 1014.0
20260906175105 103 287 1.0 6.0 0.00 0.00 0.00 40 1013.9
20260906174608 102 51 1.0 6.0 0.00 0.00 0.00 42 1013.9
20260906174040 101 59 1.0 6.0 0.00 0.00 0.00 41 1014.2
20260906174023 101 146 1.0 4.0 0.00 0.00 0.00 44 1014.3
20260906173500 101 37 2.0 8.0 0.00 0.00 0.00 44 1014.5
20260906172505 100 264 3.0 8.0 0.00 0.00 0.00 43 1014.6
20260906171942 99 265 3.0 6.0 0.00 0.00 0.00 42 1014.8
20260906171413 99 253 2.0 6.0 0.00 0.00 0.00 42 1014.9
20260906170911 99 255 1.0 5.0 0.00 0.00 0.00 44 1015.0
20260906170344 99 245 1.0 5.0 0.00 0.00 0.00 46 1015.0
20260906165841 98 133 2.0 5.0 0.00 0.00 0.00 46 1015.1
20260906165746 98 23 2.0 5.0 0.00 0.00 0.00 45 1015.1
20260906165244 99 44 1.0 4.0 0.00 0.00 0.00 46 1015.1
20260906164303 99 85 2.0 4.0 0.00 0.00 0.00 45 1015.2
20260906163737 100 87 1.0 4.0 0.00 0.00 0.00 44 1015.3
20260906163234 100 257 1.0 4.0 0.00 0.00 0.00 45 1015.4
20260906162731 100 102 1.0 6.0 0.00 0.00 0.00 46 1015.3
20260906162217 99 264 1.0 6.0 0.00 0.00 0.00 45 1015.3
20260906161716 99 223 1.0 5.0 0.00 0.00 0.00 47 1015.3
20260906161148 98 24 2.0 4.0 0.00 0.00 0.00 48 1015.4
20260906160645 98 174 2.0 4.0 0.00 0.00 0.00 48 1015.5
20260906160118 98 131 1.0 4.0 0.00 0.00 0.00 48 1015.5
20260906155554 97 259 0.0 3.0 0.00 0.00 0.00 51 1015.5
20260906155025 96 128 0.0 3.0 0.00 0.00 0.00 53 1015.6
20260906154521 95 129 0.0 3.0 0.00 0.00 0.00 53 1015.5
20260906154020 94 178 0.0 1.0 0.00 0.00 0.00 58 1015.7
20260906153515 93 247 0.0 1.0 0.00 0.00 0.00 56 1015.6
20260906153012 93 247 0.0 2.0 0.00 0.00 0.00 57 1015.6
20260906152443 92 247 1.0 3.0 0.00 0.00 0.00 55 1015.5
20260906151941 92 268 1.0 3.0 0.00 0.00 0.00 56 1015.5
20260906151437 93 250 1.0 3.0 0.00 0.00 0.00 55 1015.5
20260906150937 93 257 1.0 3.0 0.00 0.00 0.00 55 1015.5
20260906150407 93 257 1.0 3.0 0.00 0.00 0.00 54 1015.5
20260906145906 94 246 0.0 3.0 0.00 0.00 0.00 53 1015.5
20260906145337 95 257 0.0 1.0 0.00 0.00 0.00 53 1015.5
20260906144814 95 256 0.0 4.0 0.00 0.00 0.00 54 1015.5
20260906144251 95 258 1.0 4.0 0.00 0.00 0.00 53 1015.4
20260906143747 95 203 1.0 3.0 0.00 0.00 0.00 54 1015.5
20260906143247 95 259 1.0 3.0 0.00 0.00 0.00 52 1015.5
20260906142746 94 210 0.0 3.0 0.00 0.00 0.00 54 1015.4
20260906142247 94 208 0.0 2.0 0.00 0.00 0.00 56 1015.5
20260906141743 93 153 0.0 2.0 0.00 0.00 0.00 58 1015.6
20260906141213 92 243 0.0 2.0 0.00 0.00 0.00 60 1015.5
20260906140715 91 248 0.0 2.0 0.00 0.00 0.00 58 1015.5
20260906140148 90 134 0.0 1.0 0.00 0.00 0.00 62 1015.5
20260906135646 89 134 0.0 1.0 0.00 0.00 0.00 62 1015.4
20260906135118 89 134 0.0 1.0 0.00 0.00 0.00 62 1015.4
20260906134550 89 133 0.0 1.0 0.00 0.00 0.00 63 1015.3
20260906134046 88 160 0.0 1.0 0.00 0.00 0.00 63 1015.4
20260906133545 87 149 0.0 0.0 0.00 0.00 0.00 65 1015.3
20260906133017 86 148 0.0 1.0 0.00 0.00 0.00 67 1015.4
20260906133003 86 166 0.0 1.0 0.00 0.00 0.00 69 1015.4
20260906131950 85 253 0.0 0.0 0.00 0.00 0.00 70 1015.3
20260906131422 84 253 0.0 0.0 0.00 0.00 0.00 70 1015.3
20260906131352 83 259 0.0 0.0 0.00 0.00 0.00 73 1015.1
20260906130356 82 259 0.0 0.0 0.00 0.00 0.00 74 1015.1
20260906125827 81 260 0.0 0.0 0.00 0.00 0.00 76 1015.0
20260906125259 80 259 0.0 0.0 0.00 0.00 0.00 77 1015.1
20260906124755 79 259 0.0 0.0 0.00 0.00 0.00 80 1015.0
20260906124252 78 260 0.0 0.0 0.00 0.00 0.00 82 1015.0
20260906123727 77 260 0.0 0.0 0.00 0.00 0.00 83 1015.0
20260906123200 76 260 0.0 0.0 0.00 0.00 0.00 85 1014.9
20260906122700 74 260 0.0 0.0 0.00 0.00 0.00 86 1014.8
20260906122142 74 260 0.0 0.0 0.00 0.00 0.00 86 1014.8
20260906121645 73 260 0.0 0.0 0.00 0.00 0.00 86 1014.7
20260906121608 73 260 0.0 0.0 0.00 0.00 0.00 86 1014.7
20260906120617 73 260 0.0 0.0 0.00 0.00 0.00 86 1014.6
20260906120051 73 260 0.0 0.0 0.00 0.00 0.00 85 1014.6
20260906115549 73 260 0.0 0.0 0.00 0.00 0.00 85 1014.6
20260906115037 73 260 0.0 0.0 0.00 0.00 0.00 85 1014.7
20260906114535 73 260 0.0 0.0 0.00 0.00 0.00 85 1014.6
20260906114033 73 260 0.0 0.0 0.00 0.00 0.00 84 1014.6
20260906113533 73 260 0.0 0.0 0.00 0.00 0.00 83 1014.5
20260906113511 73 260 0.0 0.0 0.00 0.00 0.00 83 1014.5
20260906112530 73 260 0.0 0.0 0.00 0.00 0.00 83 1014.5
20260906112034 74 260 0.0 0.0 0.00 0.00 0.00 82 1014.3
20260906111505 74 260 0.0 0.0 0.00 0.00 0.00 82 1014.2
20260906111006 74 260 0.0 0.0 0.00 0.00 0.00 82 1014.3
20260906110950 74 260 0.0 0.0 0.00 0.00 0.00 82 1014.2
20260906105958 74 260 0.0 0.0 0.00 0.00 0.00 82 1014.3
20260906105453 74 260 0.0 0.0 0.00 0.00 0.00 81 1014.2
20260906104954 74 260 0.0 0.0 0.00 0.00 0.00 82 1014.2
20260906104429 74 260 0.0 0.0 0.00 0.00 0.00 82 1014.2
20260906103931 74 260 0.0 0.0 0.00 0.00 0.00 82 1014.3
20260906103410 74 260 0.0 0.0 0.00 0.00 0.00 82 1014.2
20260906102907 74 260 0.0 0.0 0.00 0.00 0.00 82 1014.1
20260906102408 74 260 0.0 0.0 0.00 0.00 0.00 82 1014.0
20260906101907 74 260 0.0 0.0 0.00 0.00 0.00 82 1014.1
20260906101408 74 260 0.0 0.0 0.00 0.00 0.00 82 1014.1
20260906100840 74 260 0.0 0.0 0.00 0.00 0.00 82 1014.0
20260906100335 74 260 0.0 0.0 0.00 0.00 0.00 82 1014.2
20260906095811 74 261 0.0 0.0 0.00 0.00 0.00 81 1014.1
20260906095306 74 261 0.0 0.0 0.00 0.00 0.00 81 1014.0
20260906094800 74 262 0.0 0.0 0.00 0.00 0.00 81 1013.9
20260906094736 74 262 0.0 0.0 0.00 0.00 0.00 82 1013.9
20260906093740 74 262 0.0 0.0 0.00 0.00 0.00 82 1013.9
20260906093240 74 262 0.0 0.0 0.00 0.00 0.00 82 1013.9
20260906092717 74 262 0.0 0.0 0.00 0.00 0.00 82 1013.8
20260906092213 74 262 0.0 0.0 0.00 0.00 0.00 82 1013.8
20260906091714 74 262 0.0 0.0 0.00 0.00 0.00 82 1013.8
20260906091659 74 262 0.0 0.0 0.00 0.00 0.00 82 1013.7
20260906091127 74 262 0.0 0.0 0.00 0.00 0.00 82 1013.7
20260906090143 74 262 0.0 0.0 0.00 0.00 0.00 82 1013.6
20260906085616 74 262 0.0 0.0 0.00 0.00 0.00 82 1013.6
20260906085102 74 262 0.0 0.0 0.00 0.00 0.00 81 1013.5
20260906084535 75 262 0.0 0.0 0.00 0.00 0.00 81 1013.5
20260906084036 75 262 0.0 0.0 0.00 0.00 0.00 80 1013.5
20260906083507 75 262 0.0 0.0 0.00 0.00 0.00 80 1013.5
20260906083005 75 262 0.0 0.0 0.00 0.00 0.00 80 1013.4
20260906082445 75 262 0.0 0.0 0.00 0.00 0.00 80 1013.4
20260906081928 75 262 0.0 0.0 0.00 0.00 0.00 80 1013.4
20260906081405 75 262 0.0 0.0 0.00 0.00 0.00 80 1013.4
20260906080906 76 262 0.0 0.0 0.00 0.00 0.00 80 1013.4
20260906080352 76 262 0.0 0.0 0.00 0.00 0.00 80 1013.4
20260906075856 76 262 0.0 0.0 0.00 0.00 0.00 80 1013.5
20260906075329 76 262 0.0 0.0 0.00 0.00 0.00 80 1013.5
20260906075314 76 262 0.0 0.0 0.00 0.00 0.00 80 1013.5
20260906074302 76 262 0.0 0.0 0.00 0.00 0.00 80 1013.5
20260906073739 76 262 0.0 0.0 0.00 0.00 0.00 79 1013.5
20260906073238 76 262 0.0 0.0 0.00 0.00 0.00 79 1013.7
20260906073202 76 262 0.0 0.0 0.00 0.00 0.00 79 1013.6
20260906072216 76 262 0.0 0.0 0.00 0.00 0.00 79 1013.6
20260906071718 76 262 0.0 0.0 0.00 0.00 0.00 79 1013.6
20260906071155 76 262 0.0 0.0 0.00 0.00 0.00 78 1013.7
20260906070624 76 262 0.0 0.0 0.00 0.00 0.00 78 1013.6
20260906065555 76 262 0.0 0.0 0.00 0.00 0.00 78 1013.6
20260906065055 77 262 0.0 0.0 0.00 0.00 0.00 77 1013.7
20260906064551 77 262 0.0 0.0 0.00 0.00 0.00 77 1013.6
20260906064036 77 262 0.0 0.0 0.00 0.00 0.00 77 1013.7
20260906063514 77 262 0.0 0.0 0.00 0.00 0.00 76 1013.8
20260906062951 77 262 0.0 0.0 0.00 0.00 0.00 75 1013.8
20260906062422 77 262 0.0 0.0 0.00 0.00 0.00 75 1013.8
20260906061905 77 262 0.0 0.0 0.00 0.00 0.00 75 1013.8
20260906061402 78 262 0.0 0.0 0.00 0.00 0.00 75 1013.7
20260906060903 78 262 0.0 0.0 0.00 0.00 0.00 75 1013.7
20260906060403 78 262 0.0 0.0 0.00 0.00 0.00 74 1013.8
20260906055835 78 262 0.0 0.0 0.00 0.00 0.00 73 1013.7
20260906055317 78 262 0.0 0.0 0.00 0.00 0.00 73 1013.7
20260906054815 78 262 0.0 0.0 0.00 0.00 0.00 72 1013.7
20260906054316 78 262 0.0 0.0 0.00 0.00 0.00 72 1013.7
20260906053757 78 262 0.0 0.0 0.00 0.00 0.00 72 1013.7
20260906053240 78 262 0.0 0.0 0.00 0.00 0.00 71 1013.6
20260906052743 79 262 0.0 0.0 0.00 0.00 0.00 71 1013.6
20260906052739 79 262 0.0 0.0 0.00 0.00 0.00 70 1013.6
20260906051719 80 262 0.0 0.0 0.00 0.00 0.00 69 1013.7
20260906051203 80 262 0.0 0.0 0.00 0.00 0.00 68 1013.7
20260906050702 81 262 0.0 0.0 0.00 0.00 0.00 67 1013.6
20260906050143 81 262 0.0 1.0 0.00 0.00 0.00 67 1013.6
20260906050119 81 262 0.0 1.0 0.00 0.00 0.00 67 1013.5
20260906045132 81 262 0.0 0.0 0.00 0.00 0.00 67 1013.5
20260906045119 81 262 0.0 1.0 0.00 0.00 0.00 67 1013.6
20260906044119 81 262 0.0 1.0 0.00 0.00 0.00 68 1013.5
20260906043622 81 352 0.0 0.0 0.00 0.00 0.00 68 1013.6
20260906043053 81 352 0.0 0.0 0.00 0.00 0.00 68 1013.6
20260906042553 81 352 0.0 0.0 0.00 0.00 0.00 68 1013.6
20260906042024 81 352 0.0 0.0 0.00 0.00 0.00 68 1013.6
20260906041455 81 352 0.0 0.0 0.00 0.00 0.00 67 1013.6
20260906040951 81 352 0.0 0.0 0.00 0.00 0.00 67 1013.5
20260906040443 82 352 0.0 0.0 0.00 0.00 0.00 66 1013.5
20260906035916 82 352 0.0 0.0 0.00 0.00 0.00 66 1013.5
20260906035411 82 352 0.0 0.0 0.00 0.00 0.00 66 1013.5
20260906034908 82 352 0.0 0.0 0.00 0.00 0.00 65 1013.5
20260906034344 83 352 0.0 0.0 0.00 0.00 0.00 65 1013.5
20260906034315 83 352 0.0 0.0 0.00 0.00 0.00 65 1013.5
20260906033332 83 352 0.0 0.0 0.00 0.00 0.00 64 1013.4
20260906032826 83 352 0.0 0.0 0.00 0.00 0.00 64 1013.6
20260906032327 83 352 0.0 0.0 0.00 0.00 0.00 64 1013.6
20260906031805 83 352 0.0 0.0 0.00 0.00 0.00 64 1013.6
20260906031723 83 352 0.0 0.0 0.00 0.00 0.00 63 1013.5
20260906030720 84 352 0.0 0.0 0.00 0.00 0.00 63 1013.5
20260906030208 84 352 0.0 0.0 0.00 0.00 0.00 63 1013.5
20260906025638 84 352 0.0 0.0 0.00 0.00 0.00 63 1013.5
20260906025138 84 352 0.0 0.0 0.00 0.00 0.00 62 1013.4
20260906025050 84 352 0.0 0.0 0.00 0.00 0.00 62 1013.4
20260906024106 84 352 0.0 0.0 0.00 0.00 0.00 62 1013.4
20260906023603 84 352 0.0 0.0 0.00 0.00 0.00 61 1013.3
20260906023100 84 352 0.0 0.0 0.00 0.00 0.00 61 1013.1
20260906022530 84 352 0.0 0.0 0.00 0.00 0.00 60 1013.2
20260906022513 84 352 0.0 0.0 0.00 0.00 0.00 60 1013.0
20260906021459 85 352 0.0 0.0 0.00 0.00 0.00 59 1012.9
20260906021002 85 352 0.0 0.0 0.00 0.00 0.00 59 1012.8
20260906020437 85 352 0.0 0.0 0.00 0.00 0.00 58 1012.6
20260906015910 86 352 0.0 0.0 0.00 0.00 0.00 58 1012.6
20260906015905 86 352 0.0 0.0 0.00 0.00 0.00 57 1012.5
20260906014841 86 352 0.0 0.0 0.00 0.00 0.00 57 1012.5
20260906014311 87 352 0.0 1.0 0.00 0.00 0.00 56 1012.4
20260906013741 87 352 0.0 1.0 0.00 0.00 0.00 57 1012.3
20260906013722 87 352 0.0 0.0 0.00 0.00 0.00 55 1012.2
20260906012712 87 352 0.0 0.0 0.00 0.00 0.00 54 1012.1
20260906012151 88 352 0.0 0.0 0.00 0.00 0.00 53 1012.1
20260906011650 89 352 0.0 0.0 0.00 0.00 0.00 52 1012.0
20260906011145 89 352 0.0 0.0 0.00 0.00 0.00 51 1012.0
20260906010639 90 352 0.0 0.0 0.00 0.00 0.00 50 1012.0
20260906010135 90 352 0.0 0.0 0.00 0.00 0.00 48 1011.9
20260906005635 91 352 0.0 0.0 0.00 0.00 0.00 48 1011.8
20260906005106 92 352 0.0 0.0 0.00 0.00 0.00 46 1011.8
20260906004604 93 352 0.0 1.0 0.00 0.00 0.00 46 1011.8
20260906004035 93 352 0.0 1.0 0.00 0.00 0.00 46 1011.8
20260906004019 94 352 0.0 1.0 0.00 0.00 0.00 44 1011.8
20260906003010 95 352 0.0 1.0 0.00 0.00 0.00 43 1011.8
20260906002509 96 333 0.0 1.0 0.00 0.00 0.00 42 1011.9
20260906002008 97 333 0.0 1.0 0.00 0.00 0.00 42 1011.6
20260906001459 97 68 0.0 3.0 0.00 0.00 0.00 41 1011.8
20260906000957 98 68 1.0 3.0 0.00 0.00 0.00 41 1011.8
20260906000430 98 122 0.0 2.0 0.00 0.00 0.00 41 1011.8
20260905235928 98 77 1.0 3.0 0.00 0.00 0.00 40 1011.8
20260905235401 98 57 2.0 3.0 0.00 0.00 0.00 40 1011.9
20260905234833 98 106 2.0 4.0 0.00 0.00 0.00 40 1011.8
20260905234328 98 92 2.0 5.0 0.00 0.00 0.00 40 1011.8
20260905233809 98 80 3.0 5.0 0.00 0.00 0.00 40 1011.8
20260905233244 99 39 2.0 5.0 0.00 0.00 0.00 40 1011.8
20260905232736 99 56 1.0 4.0 0.00 0.00 0.00 39 1011.8
20260905232231 100 45 1.0 5.0 0.00 0.00 0.00 39 1011.9
20260905232210 100 121 1.0 5.0 0.00 0.00 0.00 39 1011.9
20260905231225 100 19 1.0 2.0 0.00 0.00 0.00 39 1011.9
20260905230657 100 103 1.0 3.0 0.00 0.00 0.00 39 1011.8
20260905230157 100 11 2.0 5.0 0.00 0.00 0.00 40 1011.8
20260905225644 99 18 2.0 5.0 0.00 0.00 0.00 40 1011.6
20260905225118 100 30 1.0 5.0 0.00 0.00 0.00 39 1011.8
20260905224603 100 49 1.0 4.0 0.00 0.00 0.00 39 1011.6
20260905224100 99 98 1.0 6.0 0.00 0.00 0.00 39 1011.5
20260905223558 99 73 2.0 6.0 0.00 0.00 0.00 39 1011.6
20260905223030 99 131 2.0 5.0 0.00 0.00 0.00 38 1011.6
20260905222528 99 70 1.0 4.0 0.00 0.00 0.00 39 1011.6
20260905222002 99 95 2.0 6.0 0.00 0.00 0.00 39 1011.6
20260905221954 99 115 3.0 7.0 0.00 0.00 0.00 39 1011.8
20260905221421 99 44 3.0 9.0 0.00 0.00 0.00 40 1011.8
20260905220436 100 82 2.0 9.0 0.00 0.00 0.00 38 1011.8
20260905215927 100 99 1.0 5.0 0.00 0.00 0.00 38 1011.8
20260905215911 100 119 0.0 2.0 0.00 0.00 0.00 38 1011.9
20260905214857 100 106 0.0 3.0 0.00 0.00 0.00 38 1011.9
20260905214814 101 244 1.0 3.0 0.00 0.00 0.00 39 1012.0
20260905213827 100 144 1.0 5.0 0.00 0.00 0.00 38 1012.1
20260905213259 100 143 1.0 5.0 0.00 0.00 0.00 37 1012.1
20260905212755 100 58 2.0 6.0 0.00 0.00 0.00 37 1012.1
20260905212253 100 82 2.0 6.0 0.00 0.00 0.00 37 1012.2
20260905211752 101 85 2.0 5.0 0.00 0.00 0.00 38 1012.2
20260905211230 101 82 2.0 5.0 0.00 0.00 0.00 36 1012.2
20260905210731 101 58 2.0 5.0 0.00 0.00 0.00 37 1012.3
20260905210204 101 91 1.0 3.0 0.00 0.00 0.00 37 1012.4
20260905205641 101 72 1.0 4.0 0.00 0.00 0.00 37 1012.5
20260905205601 101 239 2.0 6.0 0.00 0.00 0.00 37 1012.5
20260905205045 101 213 1.0 7.0 0.00 0.00 0.00 37 1012.6
20260905204107 102 136 1.0 5.0 0.00 0.00 0.00 37 1012.6
20260905203551 101 131 2.0 5.0 0.00 0.00 0.00 40 1012.8
20260905203051 101 18 2.0 5.0 0.00 0.00 0.00 38 1012.8
20260905202549 101 11 2.0 7.0 0.00 0.00 0.00 38 1012.9
20260905202051 101 53 2.0 7.0 0.00 0.00 0.00 38 1013.0
20260905201539 102 79 1.0 5.0 0.00 0.00 0.00 38 1013.0
20260905201037 102 193 1.0 5.0 0.00 0.00 0.00 40 1013.1
20260905200514 102 260 1.0 5.0 0.00 0.00 0.00 38 1013.4
20260905200451 102 85 1.0 4.0 0.00 0.00 0.00 37 1013.5
20260905195437 103 259 1.0 4.0 0.00 0.00 0.00 37 1013.6
20260905194909 102 94 1.0 5.0 0.00 0.00 0.00 37 1013.6
20260905194406 102 122 2.0 5.0 0.00 0.00 0.00 41 1013.7
20260905193841 102 130 1.0 4.0 0.00 0.00 0.00 39 1013.8
20260905193321 101 132 1.0 4.0 0.00 0.00 0.00 41 1013.8
20260905192817 101 167 1.0 5.0 0.00 0.00 0.00 41 1013.8
20260905192315 100 89 1.0 5.0 0.00 0.00 0.00 40 1014.0
20260905191818 100 356 2.0 7.0 0.00 0.00 0.00 44 1014.1
20260905191249 100 22 1.0 7.0 0.00 0.00 0.00 42 1014.2
20260905190724 98 269 2.0 5.0 0.00 0.00 0.00 45 1014.3
20260905190155 98 32 3.0 5.0 0.00 0.00 0.00 46 1014.5
20260905190132 97 65 2.0 6.0 0.00 0.00 0.00 46 1014.6
20260905185636 96 113 2.0 5.0 0.00 0.00 0.00 48 1014.7
20260905184633 96 108 2.0 5.0 0.00 0.00 0.00 45 1014.7
20260905184055 97 33 2.0 5.0 0.00 0.00 0.00 44 1014.6
20260905183553 98 52 3.0 8.0 0.00 0.00 0.00 43 1014.7